BREEZE-KM R/B, 40556

Orbit data source: Space-Track

BREEZE-KM R/B, 40556 is space debris in LEO originally from a launch on Tue, 31 Mar 2015 UTC launched from the Plesetsk Missile And Space Complex (PKMTR). Debris objects in space refer to the collection of defunct objects orbiting the Earth. Examples of debris include non-operational satellites, rocket bodies, and fragments generated from explosions, collisions, or faulty payload assembly.

Loading next visibility...
Identifier
40556, 2015-020E
Orbit
LEO
Country
Flag of CISCIS
Related business
Manufacturer
Khrunichev
Mission
Spacecraft
Bus & Motor
BRIZ, S5.92
Mass
2,370 kg wet, 2,370 kg dry
Launch date (UTC)
2015-03-31 (11 years ago)
Launch vehicle
Unknown
Launch site
Plesetsk Missile And Space Complex (PKMTR)
Object type
Payload
Rocket body
Debris
Shape & HBR
Hex Cyl + 1 Rod, 2.0 m
Radar Cross Section
10.190 m², Large (>1 m²)

Expand to show TLE details & history
Last TLE update: 10 hours ago

TLE from 10 hours ago
0 BREEZE-KM R/B
1 40556U 15020E   26174.83661968  .00000020  00000-0  33326-4 0  9998
2 40556  82.4877 201.6776 0215535  33.0926 328.3449 12.80561309525001
Epoch: 2026-06-23T20:04Z
TLE epoch observation values (Epoch: 2026-06-23T20:04:43.940Z)
Latitude
-0.00006°
Longitude
-11.50796°
Altitude
1,201.369 km
Speed
7.319 km/s
True Right ascension
13h 26m 42s
True Declination
0° 00' 00"
Sunlit
Object was in daylight at epoch
Visualization orbit readout
Latitude
Unknown
Longitude
Unknown
Altitude
Unknown
Speed
Unknown
Apparent Right ascension
Unknown
Apparent Declination
Unknown
Sunlit
N/A
Visualization observer readout
Local Sidereal Time
16:56:08
Azimuth
Unknown
Elevation
Unknown
Doppler factor
Unknown
Orbital elements
Apogee altitude
1,502.788 km
Perigee altitude
1,170.233 km
Semi-major axis
7,714.648 km
Eccentricity
0.02155
Inclination
82.4877°
RAAN
201.6776°
Arg. of periapsis
33.0926°
True anomaly
327.01844°
Mean anomaly
328.3449°
Eccentric anomaly
327.68474°
Mean motion
3.20309 °/min
Orbital period
112.39 mins
BSTAR
0.000033326
Loading maneuver chart data...
Computing Atmospheric mass density...
Loading historical data...
Loading historical data...
Loading historical data...
Loading historical data...
Loading historical data...
Loading historical data...
Loading historical data...

Documentation

Showing up to 5 results
|